�N����,����,�~����,�C��,���x,�C��,����,���ϕ���,�ő�u�ԕ���,�ő厞����,���˗�,�I�_���x,�n�����x,�ő啗���N��,DTYPE
"19/11/04","00:10",0.0,14.4,88.3,1011.2,320.0,1.5,2.4,334.7,0.00,12.5,16.5,"00:05:28",1
"19/11/04","00:20",0.0,14.4,88.6,1011.2,329.8,1.1,2.1,339.6,0.00,12.6,16.6,"00:16:56",1
"19/11/04","00:30",0.0,14.2,88.7,1010.9,304.8,0.6,1.2,312.7,0.00,12.4,16.5,"00:20:48",1
"19/11/04","00:40",0.0,14.0,89.0,1011.4,310.2,1.0,1.8,320.0,0.00,12.3,16.4,"00:38:40",1
"19/11/04","00:50",0.0,13.8,89.2,1011.6,323.9,1.0,1.9,326.3,0.00,12.1,16.3,"00:49:12",1
"19/11/04","01:00",0.0,13.6,89.4,1011.2,268.2,0.6,1.2,259.5,0.00,11.9,16.4,"00:50:48",1
"19/11/04","01:10",0.0,13.3,89.7,1011.4,286.0,0.3,1.6,318.0,0.00,11.7,16.6,"01:08:26",1
"19/11/04","01:20",0.0,13.0,89.9,1011.6,296.1,0.7,1.9,327.3,0.00,11.4,16.5,"01:16:26",1
"19/11/04","01:30",0.0,13.1,90.3,1011.4,326.1,0.8,2.0,325.6,0.00,11.6,16.3,"01:21:44",1
"19/11/04","01:40",0.0,12.8,90.4,1011.2,296.3,1.0,1.7,323.8,0.00,11.3,16.4,"01:32:48",1
"19/11/04","01:50",0.0,12.6,90.8,1011.2,308.7,1.1,2.1,323.4,0.00,11.2,16.4,"01:49:58",1
"19/11/04","02:00",0.0,12.8,91.1,1011.2,322.1,1.6,2.6,331.5,0.00,11.4,16.2,"01:51:48",1
"19/11/04","02:10",0.0,12.7,91.4,1011.2,326.8,1.6,2.9,329.6,0.00,11.4,16.2,"02:07:46",1
"19/11/04","02:20",0.0,12.8,91.7,1011.4,326.7,1.7,2.7,323.1,0.00,11.5,16.2,"02:12:00",1
"19/11/04","02:30",0.0,13.0,91.9,1011.2,321.8,2.2,4.1,336.6,0.00,11.8,16.1,"02:24:52",1
"19/11/04","02:40",0.0,13.1,92.0,1011.2,327.6,2.3,5.5,334.9,0.00,11.9,16.0,"02:38:16",1
"19/11/04","02:50",0.0,13.0,92.1,1010.9,325.6,2.1,3.6,341.4,0.00,11.8,16.1,"02:48:52",1
"19/11/04","03:00",0.0,13.0,92.3,1011.2,324.0,2.2,4.3,325.4,0.00,11.8,16.0,"02:57:22",1
"19/11/04","03:10",0.0,12.8,92.2,1011.4,324.4,1.6,3.9,323.0,0.00,11.6,15.8,"03:04:10",1
"19/11/04","03:20",0.0,12.2,92.5,1011.4,326.0,1.7,2.5,334.3,0.00,11.1,15.7,"03:16:38",1
"19/11/04","03:30",0.0,12.0,92.8,1011.4,317.8,2.2,3.5,331.0,0.00,10.9,15.8,"03:26:40",1
"19/11/04","03:40",0.0,12.0,92.9,1011.4,324.1,2.1,2.7,336.3,0.00,10.9,15.9,"03:34:58",1
"19/11/04","03:50",0.0,12.4,93.1,1011.4,328.3,2.2,3.1,336.6,0.00,11.4,15.9,"03:45:10",1
"19/11/04","04:00",0.0,12.6,93.1,1010.9,322.8,1.6,2.5,337.5,0.00,11.6,15.8,"03:51:24",1
"19/11/04","04:10",0.0,12.7,93.1,1011.2,310.6,1.2,2.5,346.6,0.00,11.7,15.8,"04:01:44",1
"19/11/04","04:20",0.0,12.6,93.1,1011.2,329.4,1.1,1.9,346.6,0.00,11.6,15.7,"04:19:10",1
"19/11/04","04:30",0.0,12.2,93.1,1010.9,317.9,1.8,2.4,316.9,0.00,11.2,15.7,"04:26:40",1
"19/11/04","04:40",0.0,11.9,93.3,1010.9,317.6,1.5,2.6,320.1,0.00,10.9,15.9,"04:36:32",1
"19/11/04","04:50",0.0,11.8,93.5,1010.9,320.9,2.0,3.1,316.1,0.00,10.8,15.7,"04:49:42",1
"19/11/04","05:00",0.0,12.1,93.6,1011.4,324.5,2.3,3.4,333.9,0.00,11.1,15.6,"04:50:42",1
"19/11/04","05:10",0.0,12.3,93.6,1011.4,320.4,2.1,3.2,329.7,0.00,11.3,15.6,"05:04:00",1
"19/11/04","05:20",0.0,12.4,93.6,1011.2,323.4,2.1,3.4,324.0,0.00,11.4,15.7,"05:11:04",1
"19/11/04","05:30",0.0,12.4,93.6,1011.2,321.9,1.6,2.7,326.0,0.00,11.4,15.6,"05:21:20",1
"19/11/04","05:40",0.0,12.0,93.6,1011.6,313.7,1.2,1.9,321.6,0.00,11.0,15.7,"05:35:12",1
"19/11/04","05:50",0.0,11.8,93.9,1011.6,327.8,1.5,2.2,322.4,0.00,10.9,15.4,"05:40:16",1
"19/11/04","06:00",0.0,11.9,94.0,1011.9,317.9,2.1,3.5,332.9,0.00,11.0,15.6,"05:59:00",1
"19/11/04","06:10",0.0,12.2,94.0,1011.6,317.8,1.7,3.4,337.2,0.00,11.3,15.6,"06:02:00",1
"19/11/04","06:20",0.0,12.4,93.9,1012.1,323.3,1.5,3.1,319.3,0.00,11.5,15.4,"06:11:20",1
"19/11/04","06:30",0.0,12.4,94.0,1011.9,319.2,2.1,4.0,331.6,0.00,11.5,15.5,"06:29:20",1
"19/11/04","06:40",0.0,12.7,93.9,1011.9,309.7,2.0,3.1,328.8,0.00,11.8,15.4,"06:30:02",1
"19/11/04","06:50",0.0,12.8,93.6,1011.9,316.4,2.0,3.7,342.0,0.00,11.8,15.5,"06:43:04",1
"19/11/04","07:00",0.0,12.7,93.5,1012.1,321.3,2.1,3.4,327.1,0.00,11.7,15.4,"06:52:58",1
"19/11/04","07:10",0.0,12.7,93.3,1012.3,322.6,1.8,3.6,319.9,0.00,11.7,15.4,"07:06:06",1
"19/11/04","07:20",0.0,12.7,93.2,1012.6,325.4,1.5,2.6,329.7,0.00,11.7,15.3,"07:10:56",1
"19/11/04","07:30",0.0,12.6,93.1,1012.6,323.3,1.5,2.2,329.6,0.00,11.6,15.7,"07:25:44",1
"19/11/04","07:40",0.0,12.5,93.1,1012.6,311.1,1.5,2.6,332.0,0.00,11.5,15.5,"07:35:10",1
"19/11/04","07:50",0.0,12.8,93.1,1012.8,319.9,1.6,2.9,342.2,0.01,11.8,15.4,"07:44:40",1
"19/11/04","08:00",0.0,13.5,92.7,1013.3,328.8,1.3,2.4,327.2,0.03,12.4,15.6,"07:52:08",1
"19/11/04","08:10",0.0,13.9,91.3,1013.3,334.1,2.0,4.7,345.6,0.05,12.5,15.6,"08:06:00",1
"19/11/04","08:20",0.0,14.8,89.9,1013.3,325.8,1.6,3.9,340.6,0.06,13.2,15.5,"08:11:52",1
"19/11/04","08:30",0.0,15.0,87.1,1013.8,328.3,2.1,4.0,338.8,0.08,12.9,15.7,"08:25:36",1
"19/11/04","08:40",0.0,15.7,83.6,1013.8,341.5,1.3,3.2,340.0,0.11,13.0,15.6,"08:36:00",1
"19/11/04","08:50",0.0,15.9,79.2,1014.0,338.7,1.6,3.5,324.0,0.08,12.3,15.7,"08:49:36",1
"19/11/04","09:00",0.0,16.0,76.8,1013.8,339.1,1.2,2.8,300.9,0.14,12.0,15.8,"08:53:12",1
"19/11/04","09:10",0.0,16.2,74.7,1013.8,322.5,1.5,6.4,340.9,0.13,11.7,16.0,"09:05:44",1
"19/11/04","09:20",0.0,16.0,73.3,1013.8,348.7,2.2,4.4,32.8,0.13,11.3,15.8,"09:13:20",1
"19/11/04","09:30",0.0,16.4,72.6,1014.0,334.3,2.3,5.6,349.9,0.21,11.5,16.1,"09:20:24",1
"19/11/04","09:40",0.0,16.5,71.8,1013.5,342.8,1.8,3.9,333.9,0.20,11.4,16.1,"09:33:04",1
"19/11/04","09:50",0.0,16.4,69.2,1013.5,342.1,2.3,6.8,334.3,0.21,10.8,16.3,"09:48:56",1
"19/11/04","10:00",0.0,16.1,68.7,1013.3,352.2,2.6,5.0,5.9,0.16,10.4,16.4,"09:50:24",1
"19/11/04","10:10",0.0,16.0,68.4,1013.8,344.9,2.3,6.5,340.0,0.11,10.2,16.4,"10:00:24",1
"19/11/04","10:20",0.0,15.8,68.2,1013.3,340.8,2.6,4.9,341.4,0.09,10.0,16.3,"10:12:56",1
"19/11/04","10:30",0.0,16.1,67.9,1013.8,333.5,2.1,4.2,340.6,0.13,10.2,16.5,"10:21:52",1
"19/11/04","10:40",0.0,16.3,65.7,1013.0,331.4,2.7,5.4,355.0,0.22,9.9,16.2,"10:32:08",1
"19/11/04","10:50",0.0,16.6,63.1,1013.5,343.6,2.5,5.4,332.1,0.23,9.6,16.6,"10:43:52",1
"19/11/04","11:00",0.0,16.1,62.9,1013.3,350.9,2.7,4.5,341.4,0.19,9.1,16.7,"10:53:12",1
"19/11/04","11:10",0.0,17.2,59.3,1013.0,328.6,2.1,5.5,308.9,0.46,9.2,16.7,"11:08:08",1
"19/11/04","11:20",0.0,17.3,57.5,1013.3,328.1,3.1,8.3,346.0,0.37,8.9,16.9,"11:16:48",1
"19/11/04","11:30",0.0,17.3,56.6,1013.0,348.2,2.8,6.5,336.8,0.42,8.6,17.2,"11:25:12",1
"19/11/04","11:40",0.0,17.5,55.1,1012.8,340.1,2.8,6.6,340.1,0.40,8.4,17.1,"11:35:20",1
"19/11/04","11:50",0.0,17.3,55.0,1013.0,341.7,2.3,7.2,337.3,0.30,8.2,17.3,"11:44:16",1
"19/11/04","12:00",0.0,17.0,55.4,1012.6,352.3,3.0,5.6,7.8,0.28,8.0,17.4,"11:53:04",1
"19/11/04","12:10",0.0,16.4,55.9,1012.8,346.0,3.4,6.2,357.3,0.22,7.6,17.4,"12:04:24",1
"19/11/04","12:20",0.0,17.4,54.5,1012.3,335.3,3.4,7.9,335.6,0.50,8.2,17.5,"12:15:28",1
"19/11/04","12:30",0.0,17.4,53.9,1012.6,344.7,3.1,5.7,325.0,0.28,8.0,17.7,"12:27:44",1
"19/11/04","12:40",0.0,17.1,54.6,1012.3,337.8,3.4,7.5,326.2,0.35,7.9,17.7,"12:36:56",1
"19/11/04","12:50",0.0,17.3,52.6,1012.1,337.2,3.6,7.0,345.6,0.47,7.6,17.9,"12:43:04",1
"19/11/04","13:00",0.0,17.7,52.4,1012.1,336.0,3.1,6.4,11.7,0.49,7.9,17.8,"12:50:32",1
"19/11/04","13:10",0.0,17.6,52.8,1012.3,333.1,3.5,7.9,340.8,0.51,7.9,18.0,"13:02:48",1
"19/11/04","13:20",0.0,17.1,51.9,1012.3,339.6,3.7,7.5,354.3,0.41,7.2,18.2,"13:19:04",1
"19/11/04","13:30",0.0,17.7,54.2,1012.1,338.5,2.6,6.6,334.1,0.43,8.4,18.2,"13:26:08",1
"19/11/04","13:40",0.0,17.3,54.3,1012.1,348.4,2.8,6.7,340.4,0.30,8.0,18.4,"13:30:08",1
"19/11/04","13:50",0.0,16.3,55.3,1012.1,332.1,3.9,10.1,342.1,0.25,7.4,18.3,"13:45:52",1
"19/11/04","14:00",0.0,16.9,54.8,1012.1,332.1,3.5,6.4,348.5,0.37,7.8,18.3,"13:58:16",1
"19/11/04","14:10",0.0,17.4,51.8,1011.9,338.2,3.6,8.5,346.7,0.44,7.4,18.5,"14:08:00",1
"19/11/04","14:20",0.0,17.8,49.9,1011.9,339.0,2.1,4.7,307.5,0.36,7.3,18.6,"14:19:12",1
"19/11/04","14:30",0.0,17.1,50.4,1011.9,334.2,3.0,6.7,349.1,0.21,6.8,18.5,"14:26:00",1
"19/11/04","14:40",0.0,17.5,50.7,1011.9,337.0,2.3,4.9,334.7,0.28,7.2,18.6,"14:38:48",1
"19/11/04","14:50",0.0,17.8,49.5,1012.1,327.9,1.8,4.9,350.1,0.23,7.1,18.4,"14:41:04",1
"19/11/04","15:00",0.0,17.0,51.2,1012.1,339.8,3.2,8.1,335.6,0.25,6.9,18.6,"14:57:36",1
"19/11/04","15:10",0.0,16.3,52.6,1012.3,348.5,3.1,7.1,342.4,0.11,6.6,18.6,"15:07:52",1
"19/11/04","15:20",0.0,16.0,55.9,1012.3,339.6,3.2,7.4,353.5,0.13,7.2,18.4,"15:15:52",1
"19/11/04","15:30",0.0,15.7,57.2,1012.3,336.6,3.5,7.1,310.9,0.08,7.3,18.2,"15:21:44",1
"19/11/04","15:40",0.0,15.7,56.5,1012.6,337.4,2.7,7.1,312.0,0.08,7.1,18.3,"15:37:44",1
"19/11/04","15:50",0.0,15.6,55.8,1012.8,339.5,3.5,7.9,353.0,0.09,6.9,18.2,"15:42:00",1
"19/11/04","16:00",0.0,15.5,54.6,1012.8,342.2,3.4,8.3,339.5,0.10,6.4,18.1,"15:54:40",1
"19/11/04","16:10",0.0,15.4,54.4,1012.8,344.0,2.7,8.8,328.5,0.07,6.3,18.1,"16:03:52",1
"19/11/04","16:20",0.0,15.3,54.6,1012.8,340.5,3.0,7.0,338.9,0.06,6.3,18.1,"16:16:48",1
"19/11/04","16:30",0.0,15.2,55.3,1013.3,339.0,2.5,4.5,344.0,0.05,6.3,17.8,"16:26:24",1
"19/11/04","16:40",0.0,15.1,54.6,1013.3,331.9,2.6,4.9,325.0,0.05,6.1,17.7,"16:36:56",1
"19/11/04","16:50",0.0,15.0,54.1,1013.0,336.4,2.6,5.8,346.3,0.03,5.8,17.7,"16:47:12",1
"19/11/04","17:00",0.0,15.0,54.8,1013.0,320.2,2.1,4.2,338.2,0.02,6.0,17.4,"16:53:52",1
"19/11/04","17:10",0.0,14.7,56.3,1013.3,345.1,2.1,5.6,64.5,0.00,6.1,17.4,"17:04:16",1
"19/11/04","17:20",0.0,14.5,57.8,1013.5,343.7,1.7,3.7,346.3,0.00,6.3,17.3,"17:14:08",1
"19/11/04","17:30",0.0,14.0,59.2,1013.3,335.9,1.8,4.0,337.2,0.00,6.2,17.2,"17:21:28",1
"19/11/04","17:40",0.0,13.4,61.4,1013.3,331.9,1.2,2.2,312.6,0.00,6.2,17.3,"17:39:48",1
"19/11/04","17:50",0.0,12.4,63.5,1013.3,317.7,1.3,1.8,326.7,0.00,5.7,17.0,"17:40:32",1
"19/11/04","18:00",0.0,11.8,66.9,1013.5,326.1,1.6,2.4,333.5,0.00,5.9,16.9,"17:51:18",1
"19/11/04","18:10",0.0,11.3,68.8,1013.8,307.7,1.5,1.9,330.6,0.00,5.8,16.9,"18:00:48",1
"19/11/04","18:20",0.0,10.9,70.2,1013.3,306.3,1.3,2.2,308.0,0.00,5.7,16.7,"18:13:42",1
"19/11/04","18:30",0.0,10.7,71.9,1013.5,332.1,1.2,1.9,320.1,0.00,5.9,16.6,"18:28:48",1
"19/11/04","18:40",0.0,10.2,73.3,1013.5,302.4,1.1,1.8,310.6,0.00,5.7,16.4,"18:39:52",1
"19/11/04","18:50",0.0,9.6,74.7,1013.5,304.6,1.5,2.2,310.5,0.00,5.4,16.2,"18:44:32",1
"19/11/04","19:00",0.0,9.0,76.0,1013.5,297.0,1.5,2.5,321.7,0.00,5.0,16.3,"18:58:40",1
"19/11/04","19:10",0.0,9.0,77.8,1013.3,309.5,1.6,2.7,318.3,0.00,5.4,16.1,"19:06:40",1
"19/11/04","19:20",0.0,8.9,79.8,1013.0,309.0,1.7,2.6,315.1,0.00,5.6,15.8,"19:10:08",1
"19/11/04","19:30",0.0,8.8,81.7,1013.3,315.0,1.6,2.5,326.3,0.00,5.9,15.8,"19:27:28",1
"19/11/04","19:40",0.0,9.0,83.3,1013.3,315.8,1.8,2.4,315.8,0.00,6.4,15.8,"19:33:52",1
"19/11/04","19:50",0.0,9.2,84.5,1013.3,326.7,2.1,3.3,332.7,0.00,6.8,15.7,"19:42:40",1
"19/11/04","20:00",0.0,9.3,85.2,1013.5,328.2,2.1,2.7,324.2,0.00,7.0,15.5,"19:57:20",1
"19/11/04","20:10",0.0,9.2,85.7,1013.3,324.3,1.7,2.8,328.6,0.00,7.0,15.4,"20:03:20",1
"19/11/04","20:20",0.0,9.1,85.9,1013.5,304.0,1.3,2.2,315.6,0.00,6.9,15.7,"20:12:00",1
"19/11/04","20:30",0.0,8.7,86.4,1013.3,305.2,0.8,1.9,287.0,0.00,6.6,15.3,"20:28:00",1
"19/11/04","20:40",0.0,8.2,86.7,1013.3,284.8,1.2,2.1,306.5,0.00,6.2,15.4,"20:35:52",1
"19/11/04","20:50",0.0,8.2,87.3,1013.5,307.9,1.5,2.9,314.1,0.00,6.3,15.3,"20:43:44",1
"19/11/04","21:00",0.0,8.0,87.7,1013.3,303.6,1.7,2.5,318.8,0.00,6.1,15.2,"20:56:24",1
"19/11/04","21:10",0.0,7.8,88.0,1013.3,298.9,1.5,2.1,300.6,0.00,6.0,15.1,"21:00:16",1
"19/11/04","21:20",0.0,7.7,88.6,1013.0,299.7,1.5,2.2,316.0,0.00,6.0,14.9,"21:10:16",1
"19/11/04","21:30",0.0,7.5,88.8,1013.3,293.3,1.6,2.4,320.8,0.00,5.8,15.1,"21:25:12",1
"19/11/04","21:40",0.0,7.4,89.2,1013.3,298.9,1.1,2.0,311.9,0.00,5.8,15.0,"21:34:24",1
"19/11/04","21:50",0.0,7.4,89.6,1013.5,299.7,1.2,2.0,307.2,0.00,5.8,14.7,"21:46:24",1
"19/11/04","22:00",0.0,7.2,89.8,1013.5,295.1,1.5,2.1,313.7,0.00,5.7,14.9,"21:59:44",1
"19/11/04","22:10",0.0,6.9,90.1,1013.8,299.2,1.6,2.4,324.3,0.00,5.4,14.7,"22:04:16",1
"19/11/04","22:20",0.0,7.0,90.5,1013.8,299.9,1.2,2.4,315.8,0.00,5.6,14.5,"22:11:20",1
"19/11/04","22:30",0.0,7.0,90.8,1013.5,293.5,1.7,2.4,310.1,0.00,5.6,14.5,"22:20:48",1
"19/11/04","22:40",0.0,7.3,91.1,1013.5,292.3,1.5,2.5,311.8,0.00,6.0,14.5,"22:36:08",1
"19/11/04","22:50",0.0,7.8,91.4,1013.0,301.4,1.7,3.1,304.7,0.00,6.5,14.5,"22:49:52",1
"19/11/04","23:00",0.0,8.2,91.4,1013.3,293.4,1.5,2.4,300.4,0.00,6.9,14.4,"22:50:02",1
"19/11/04","23:10",0.0,8.4,91.6,1013.5,313.3,1.6,2.4,330.5,0.00,7.2,14.5,"23:02:00",1
"19/11/04","23:20",0.0,8.4,91.8,1013.3,315.5,2.0,2.8,323.2,0.00,7.2,14.4,"23:13:28",1
"19/11/04","23:30",0.0,8.3,91.8,1013.3,309.1,2.0,3.3,323.9,0.00,7.1,14.4,"23:21:44",1
"19/11/04","23:40",0.0,8.2,92.1,1013.3,314.2,2.0,2.6,327.4,0.00,7.0,14.2,"23:38:32",1
"19/11/04","23:50",0.0,8.4,92.3,1013.0,322.8,2.2,3.3,329.8,0.00,7.3,14.2,"23:45:44",1
"19/11/04","24:00",0.0,8.8,92.3,1013.5,308.4,2.0,3.5,335.6,0.00,7.7,14.4,"23:58:56",1
